CW1459 Weather Reports


time (UTC)temp
C
wind
direction
speed
KPH
gust
KPH
rain 1hr
cm
rain 24hr
cm
rain mn
cm
humidity
%
barometer
mb
20260503194311 16 360 9.7 25.7 0.00 0.00 0.00 33 1012.8
20260503193352 16 304 11.3 25.7 0.00 0.00 0.00 31 1013.0
20260503192315 15 239 12.9 20.9 0.00 0.00 0.00 35 1013.1
20260503191311 16 321 12.9 29.0 0.00 0.00 0.00 32 1013.3
20260503190311 16 294 17.7 30.6 0.00 0.00 0.00 33 1013.4
20260503185334 16 308 9.7 20.9 0.00 0.00 0.00 36 1013.2
20260503184328 16 286 9.7 19.3 0.00 0.00 0.00 34 1013.4
20260503183330 15 300 11.3 29.0 0.00 0.00 0.00 32 1013.7
20260503182316 15 320 9.7 20.9 0.00 0.00 0.00 37 1013.6
20260503181352 15 275 11.3 22.5 0.00 0.00 0.00 34 1013.8
20260503180315 15 285 14.5 24.1 0.00 0.00 0.00 34 1013.8
20260503175313 15 284 12.9 22.5 0.00 0.00 0.00 34 1013.9
20260503174334 15 317 11.3 30.6 0.00 0.00 0.00 39 1014.1
20260503173320 15 332 11.3 29.0 0.00 0.00 0.00 41 1014.2
20260503172326 13 329 17.7 29.0 0.00 0.00 0.00 40 1014.3
20260503171359 13 293 4.8 22.5 0.00 0.00 0.00 41 1014.3
20260503170312 14 316 9.7 19.3 0.00 0.00 0.00 41 1014.2
20260503150332 10 328 11.3 25.7 0.00 0.00 0.00 51 1015.6
20260503131313 8 19 9.7 24.1 0.00 0.00 0.00 60 1015.6
20260503130313 7 311 6.4 14.5 0.00 0.00 0.00 62 1015.9
20260503110358 2 292 0.0 3.2 0.00 0.00 0.00 79 1015.1
20260503090342 2 304 0.0 8.0 0.00 0.00 0.00 76 1013.7
20260503081321 3 290 4.8 9.7 0.00 0.00 0.00 76 1013.5
20260503080341 3 302 1.6 6.4 0.00 0.00 0.00 76 1013.4
20260503072315 4 317 0.0 3.2 0.00 0.00 0.00 75 1012.9
20260503071334 5 318 0.0 4.8 0.00 0.00 0.00 73 1012.9
20260503070400 5 347 3.2 6.4 0.00 0.00 0.00 72 1012.9
20260503054341 6 329 6.4 12.9 0.00 0.00 0.00 70 1012.7
20260503053318 6 333 6.4 14.5 0.00 0.00 0.00 70 1012.7
20260503052337 5 320 9.7 19.3 0.00 0.00 0.00 71 1012.7
20260503051340 5 317 6.4 12.9 0.00 0.00 0.00 71 1012.7
20260503050320 5 328 9.7 14.5 0.00 0.00 0.00 70 1012.7
20260503045325 5 351 8.0 14.5 0.00 0.00 0.00 70 1012.7
20260503044317 5 327 6.4 9.7 0.00 0.00 0.00 69 1012.9
20260503043315 5 316 6.4 16.1 0.00 0.00 0.00 68 1012.9
20260503042321 6 5 4.8 9.7 0.00 0.00 0.00 67 1012.7
20260503041323 6 360 4.8 12.9 0.00 0.00 0.00 66 1012.8
20260503040330 6 340 9.7 17.7 0.00 0.00 0.00 67 1012.9
20260503035334 6 325 9.7 16.1 0.00 0.03 0.00 66 1013.0
20260503034339 6 347 8.0 16.1 0.00 0.03 0.00 66 1013.0
20260503033341 6 332 4.8 14.5 0.00 0.03 0.00 66 1012.9
20260503032322 7 351 4.8 14.5 0.00 0.03 0.00 65 1012.9
20260503031340 7 12 8.0 16.1 0.00 0.03 0.00 64 1013.0
20260503030316 7 318 8.0 16.1 0.00 0.03 0.00 64 1013.1
20260503025315 7 351 9.7 16.1 0.00 0.03 0.00 64 1013.1
20260503024336 7 333 8.0 14.5 0.00 0.03 0.00 64 1013.2
20260503023320 7 333 12.9 19.3 0.00 0.03 0.00 63 1013.2
20260503022320 8 342 12.9 19.3 0.00 0.03 0.00 62 1013.3
20260503021319 8 311 8.0 20.9 0.00 0.03 0.00 61 1013.1
20260503020314 8 360 9.7 20.9 0.00 0.03 0.00 60 1013.1
20260503015340 8 350 9.7 20.9 0.00 0.03 0.00 59 1013.1
20260503014339 8 336 11.3 17.7 0.00 0.03 0.00 59 1013.1
20260503013340 8 351 6.4 19.3 0.00 0.03 0.00 59 1012.9
20260503012359 9 351 6.4 12.9 0.00 0.03 0.00 61 1012.8
20260503011334 9 329 6.4 16.1 0.00 0.03 0.00 61 1012.7
20260503010331 9 350 3.2 8.0 0.00 0.03 0.00 60 1012.5
20260503005324 9 318 6.4 14.5 0.00 0.03 0.00 58 1012.4
20260503004336 10 351 6.4 14.5 0.00 0.03 0.00 57 1012.2
20260503003321 10 5 8.0 17.7 0.00 0.03 0.00 56 1012.0
20260503002323 10 338 9.7 19.3 0.00 0.03 0.00 54 1011.9
20260503001337 10 303 12.9 24.1 0.00 0.03 0.00 52 1011.7
20260503000336 10 351 11.3 17.7 0.00 0.03 0.00 51 1011.6
20260502235333 10 340 6.4 16.1 0.00 0.03 0.00 50 1011.4
20260502234337 11 329 11.3 20.9 0.00 0.03 0.00 50 1011.4
20260502233336 11 306 8.0 24.1 0.00 0.03 0.00 50 1011.3
20260502232337 11 290 6.4 16.1 0.00 0.03 0.00 49 1011.3
20260502231400 11 14 8.0 19.3 0.00 0.03 0.00 48 1011.2
20260502230314 11 351 6.4 12.9 0.00 0.03 0.00 50 1011.1
20260502225314 11 323 6.4 14.5 0.00 0.03 0.00 49 1011.0
20260502224338 11 343 6.4 14.5 0.00 0.03 0.00 48 1011.0
20260502223338 11 324 11.3 20.9 0.00 0.03 0.00 47 1011.0
20260502222319 12 337 8.0 17.7 0.00 0.03 0.00 47 1010.9
20260502221332 12 351 6.4 14.5 0.00 0.03 0.00 49 1010.8
20260502220316 12 319 9.7 16.1 0.00 0.03 0.00 46 1010.8
20260502215338 12 323 8.0 17.7 0.00 0.03 0.00 47 1010.9
20260502214315 12 338 6.4 14.5 0.00 0.03 0.00 48 1010.9
20260502213353 12 328 11.3 19.3 0.00 0.03 0.00 47 1011.0
20260502212320 12 317 9.7 17.7 0.00 0.03 0.00 48 1011.1
20260502211337 12 351 11.3 17.7 0.00 0.03 0.00 48 1010.9
20260502210316 12 326 11.3 19.3 0.00 0.03 0.00 48 1010.7
20260502205342 12 324 12.9 22.5 0.00 0.03 0.00 47 1010.7
20260502204350 13 331 9.7 22.5 0.00 0.03 0.00 47 1010.6
20260502203333 13 291 4.8 17.7 0.00 0.03 0.00 49 1010.7
20260502202336 13 315 9.7 22.5 0.00 0.03 0.00 47 1010.7
20260502201333 13 331 11.3 19.3 0.00 0.03 0.00 47 1010.8
20260502200314 13 348 6.4 22.5 0.00 0.03 0.00 51 1010.8
20260502195332 12 325 9.7 19.3 0.00 0.03 0.00 50 1010.9